User: anonymous   Login
Location: Brunembert
(50.7122°N, 1.8935°E)
Time: 00:15:08
(UTC+00:00)
Language:

FALCON 9 DEB - Orbit

View from above orbital plane
View from above orbital plane
View from above satellite
View from above satellite

Ground track
Ground track

The orbit data is extracted from the following two-line orbital elements,

1 44295U 19029BN  21169.43020330  .00002916  00000-0  67214-4 0  9991
2 44295  52.9993 175.6832 0008956 151.8803 208.2687 15.46142859118063
Epoch (UTC): 18 June 2021 10:19:29
Eccentricity: 0.0008956
inclination: 52.9993°
perigee height: 422 km
apogee height: 434 km
right ascension of ascending node: 175.6832°
argument of perigee: 151.8803°
revolutions per day: 15.46142859
mean anomaly at epoch: 208.2687°
orbit number at epoch: 11806

The dashed part of the orbit path shows where the satellite is in the earth's shadow,  

DLR